User: anonymous   Login
Location: ????????
(55.1591°N, 39.1782°E)
Time: 02:59:12
(UTC+00:00)
Language:

NOSS 7 (E) - Orbit

View from above orbital plane
View from above orbital plane
View from above satellite
View from above satellite

Ground track
Ground track

The orbit data is extracted from the following two-line orbital elements,

1 16624U 86014E   24174.58438226  .00008049  00000-0  68188-3 0  9999
2 16624  63.3000 282.3991 0868945 102.7816 267.1660 13.60429398249875
Epoch (UTC): 22 June 2024 14:01:30
Eccentricity: 0.0868945
inclination: 63.3000°
perigee height: 390 km
apogee height: 1678 km
right ascension of ascending node: 282.3991°
argument of perigee: 102.7816°
revolutions per day: 13.60429398
mean anomaly at epoch: 267.1660°
orbit number at epoch: 24987

The dashed part of the orbit path shows where the satellite is in the earth's shadow,  

DLR